Weather History for Kalaeloa, HI

Change the Weather History Date:

Tuesday, January 1, 2013

  Actual Average (PHNL) Record (PHNL)
Temperature  
Mean Temperature 74 °F 74 °F  
Max Temperature 79 °F 80 °F 85 °F (1987)
Min Temperature 70 °F 67 °F 55 °F (1973)
Degree Days  
Heating Degree Days 0 0  
Month to date heating degree days 0  
Since 1 July heating degree days 0  
Cooling Degree Days 10 9  
Month to date cooling degree days 9  
Year to date cooling degree days 9  
Growing Degree Days 24 (Base 50)    
Moisture  
Dew Point 64 °F    
Average Humidity 73    
Maximum Humidity 81    
Minimum Humidity 64    
Precipitation  
Precipitation 0.00 in 0.10 in 1.61 in (2005)
Month to date precipitation 0.10  
Year to date precipitation 0.10  
Snow  
Snow 0.00 in - - ()
Month to date snowfall  
Since 1 July snowfall  
Snow Depth -    
Sea Level Pressure  
Sea Level Pressure 30.10 in    
Wind  
Wind Speed 5 mph (NE)    
Max Wind Speed 9 mph    
Max Gust Speed 18 mph    
Visibility 10 miles    
Events      
T = Trace of Precipitation, MM = Missing Value Source: NWS Daily Summary

Daily Weather History Graph

Daily Weather History Graph

Search for Another Location

Airport:

Trip Planner

Search our weather history database for the weather conditions in past years. The results will help you decide how hot, cold, wet, or windy it might be!

Date:

Astronomy

Jan. 01, 2013 Rise Set
Actual Time 7:10 AM HST 6:02 PM HST
Civil Twilight 6:45 AM HST 6:26 PM HST
Nautical Twilight 6:18 AM HST 6:54 PM HST
Astronomical Twilight 5:51 AM HST 7:21 PM HST
Moon 10:08 PM HST (1/1) 10:00 AM HST (1/1)
Length of Visible Light 11h 40m
Length of Day
10h 52m
Waning Gibbous, 82% of the Moon is Illuminated
Jan 1
Waning Gibbous
Jan 4
Last Quarter
Jan 11
New
Jan 18
First Quarter
Jan 26
Full

Hourly Weather History & Observations

Time (HST) Temp. Dew Point Humidity Pressure Visibility Wind Dir Wind Speed Gust Speed Precip Events Conditions
12:53 AM 71.1 °F 63.0 °F 75% 30.10 in 10.0 mi Calm Calm - N/A   Clear
1:53 AM 72.0 °F 63.0 °F 73% 30.09 in 10.0 mi Calm Calm - N/A   Clear
2:53 AM 73.0 °F 64.9 °F 76% 30.09 in 10.0 mi Variable 4.6 mph - N/A   Clear
3:53 AM 72.0 °F 64.9 °F 78% 30.09 in 10.0 mi Variable 4.6 mph - N/A   Clear
4:53 AM 72.0 °F 64.0 °F 76% 30.10 in 10.0 mi Variable 5.8 mph - N/A   Clear
5:53 AM 72.0 °F 64.9 °F 78% 30.10 in 10.0 mi Variable 5.8 mph - N/A   Clear
6:53 AM 71.1 °F 64.9 °F 81% 30.11 in 10.0 mi Variable 3.5 mph - N/A   Clear
7:53 AM 73.0 °F 66.0 °F 79% 30.13 in 10.0 mi Variable 5.8 mph - N/A   Clear
8:53 AM 75.9 °F 66.9 °F 74% 30.15 in 10.0 mi Variable 6.9 mph - N/A   Scattered Clouds
9:53 AM 75.9 °F 68.0 °F 76% 30.15 in 10.0 mi NNE 8.1 mph - N/A   Mostly Cloudy
10:53 AM 79.0 °F 66.0 °F 64% 30.14 in 10.0 mi Variable 4.6 mph 16.1 mph N/A   Partly Cloudy
11:53 AM 78.1 °F 64.9 °F 64% 30.10 in 10.0 mi Variable 6.9 mph 17.3 mph N/A   Mostly Cloudy
12:53 PM 77.0 °F 66.0 °F 69% 30.08 in 10.0 mi NE 8.1 mph 16.1 mph 0.00 in   Mostly Cloudy
1:53 PM 75.9 °F 64.9 °F 69% 30.06 in 10.0 mi Variable 5.8 mph 16.1 mph N/A   Overcast
2:53 PM 75.0 °F 64.0 °F 69% 30.05 in 10.0 mi NNE 8.1 mph 18.4 mph N/A   Mostly Cloudy
3:53 PM 75.9 °F 64.0 °F 67% 30.05 in 10.0 mi Variable 4.6 mph 17.3 mph N/A   Scattered Clouds
4:27 PM 75.2 °F 62.6 °F 65% 30.04 in 10.0 mi Variable 5.8 mph - N/A   Mostly Cloudy
4:36 PM 73.4 °F 62.6 °F 69% 30.05 in 10.0 mi Variable 6.9 mph - N/A   Scattered Clouds
4:53 PM 73.9 °F 63.0 °F 68% 30.07 in 10.0 mi NE 9.2 mph - N/A   Mostly Cloudy
5:53 PM 72.0 °F 62.1 °F 71% 30.08 in 10.0 mi NNE 8.1 mph 18.4 mph N/A   Overcast
6:53 PM 71.1 °F 62.1 °F 73% 30.10 in 10.0 mi NE 8.1 mph - N/A   Overcast
7:53 PM 70.0 °F 62.1 °F 76% 30.11 in 10.0 mi NE 9.2 mph - N/A   Overcast
8:53 PM 70.0 °F 63.0 °F 78% 30.13 in 10.0 mi Variable 4.6 mph - N/A   Overcast
9:53 PM 70.0 °F 63.0 °F 78% 30.13 in 10.0 mi Variable 5.8 mph - N/A   Overcast
10:53 PM 70.0 °F 63.0 °F 78% 30.13 in 10.0 mi Variable 6.9 mph - N/A   Overcast
11:53 PM 70.0 °F 62.1 °F 76% 30.11 in 10.0 mi Variable 6.9 mph - N/A   Partly Cloudy